Aeroporto :
LOGIN :

Iscrizione | Disclaimer

   EN    FR    IT 

 










Sommario :    VFR   VFR Marginale   IFR   IFR Intensivo   IFR Molto Intensivo
Visibilità : 
Base nubi : 
>= 8 km
>= 3000ft
5 / 8 km
1000 / 3000 ft
1500m / 5 km
500 / 1000 ft
800 / 1500m
200 / 500 ft
< 800m
< 200 ft
Simboli :   Temporali  Nebbia  Neve Forte  Precipitazioni Forti  Vento > 20 kt
SIGMETs :   Varie  Temporali  Ghiacco  Turbolenza  Onda orograficha  Ceneri Vulcaniche






- Altitudine del aeroporto : 16 ft
- Codice IATA : AAE


DABB - Annaba-Rabah Bitat

ULTIMO METAR :
  • 240600Z 20004KT 8000 FEW020 BKN033 13/13 Q1024

METARs OBSOLETI :
  • 240500Z 19005KT 7000 -RA SCT016 FEW026CB BKN033 13/13 Q1024
  • 240400Z 19003KT 7000 SCT016 FEW026CB BKN033 13/13 Q1024

TAF TAF DABB
Valido dal 24 a 06 ore il 25 a 06 ore UTC


240500Z 2406/2506 36008KT 7000 SCT016 SCT033
TEMPO 2406/2412 5000 -RA FEW026CB
PROB40
TEMPO 2412/2418 FEW023TCU



MetMap, La meteo Aeronautica in un colpo d'occhio ! - Copyright ORBIFLY Dicembre 2007 - Disclaimer

ORBIFLY MET'MAP TEAM :

Programmazione e sviluppo : Alexandra Zaïnal
Concezione : Baudouin d'Aumeries
Aiuto per la programmazione : Marc-Olivier Méhu
Supporto tecnico e logistico : Manuel Goepfert
Aiuto per la traduzione : Arnaldo La Scala

Contatto : metmap@orbifly.com




FONTI E CREDITI :

   NOAA